Location: Nairn
(57.5833°N, 3.8667°W)
Time: 03:33:43
(UTC+00:00)

Cosmos 1943 - Pass Details

Date: 07 August 2020
Orbit: 834 x 849 km, 71.0° (Epoch: 27 September)

Event Time Altitude Azimuth Distance (km) Brightness Sun altitude
Rises 03:01:38 0° 323° (NW) 3,396 6.5 -9.0°
Reaches altitude 10° 03:04:05 10° 324° (NW) 2,458 5.8 -8.8°
Maximum altitude 03:09:45 88° 54° (NE) 844 3.3 -8.3°
Drops below altitude 10° 03:15:23 10° 144° (SE) 2,446 5.5 -7.8°
Sets 03:17:48 0° 145° (SE) 3,379 6.2 -7.6°
